UAE903 EDDH-OMDB

Flight info

Callsign UAE903
Flight time N/A
Altitude 23000
Route RAMAR6G/33 RAMAR Z998 NUSGU/N0482F350 Z998 RATMO DCT HDO DCT ODLIV DCT MAVOR DCT TEGRI DCT ADORU UN739 TUMER UT38 VAPEK/N0487F370 UT38 VESAR L620 BALMA UR655 LEBOR R655 KTN R785 RASLI P559 TRF R23 NEVOL N318 TAMRO T503 KSA M321 RESAL T533 RAPMA DCT KUVSO DCT KATIT DCT PEKEM M628 RIGIL G783 ELUDA/N0503F350 G783 ASPED Q308 KIPOK Q568 IMPED
Aircraft B77W/H-SDE1E2E3FGHIJ2J3J4J5M1RWXY/LB1D1

Departure

Time 2026-05-05 09:17
Airport Hamburg Helmut Schmidt Airport (EDDH)

Arrival

Time N/A
Airport Dubai International Airport (OMDB)
Time Latitude Longitude Altitude Speed Heading
2026-05-05 08:52 53.62894 10.00208 50 ft 0 kts 124°
2026-05-05 09:11 53.62900 10.00194 46 ft 4 kts 129°
2026-05-05 09:11 53.62919 10.00163 51 ft 4 kts 148°
2026-05-05 09:11 53.62943 10.00144 46 ft 4 kts 168°
2026-05-05 09:11 53.62970 10.00140 46 ft 4 kts 185°
2026-05-05 09:12 53.62996 10.00148 46 ft 4 kts 200°
2026-05-05 09:12 53.63015 10.00163 46 ft 0 kts 212°
2026-05-05 09:14 53.63013 10.00161 46 ft 3 kts 212°
2026-05-05 09:14 53.62984 10.00130 49 ft 5 kts 212°
2026-05-05 09:14 53.62952 10.00097 46 ft 5 kts 211°
2026-05-05 09:14 53.62919 10.00065 49 ft 5 kts 206°
2026-05-05 09:15 53.62884 10.00042 48 ft 5 kts 208°
2026-05-05 09:15 53.62845 9.99963 51 ft 15 kts 239°
2026-05-05 09:15 53.62815 9.99807 50 ft 11 kts 291°
2026-05-05 09:15 53.62871 9.99742 50 ft 0 kts 333°
2026-05-05 09:16 53.62963 9.99663 50 ft 45 kts 333°
2026-05-05 09:17 53.63479 9.99217 45 ft 119 kts 333°
2026-05-05 09:17 53.64407 9.98419 57 ft 177 kts 332°
2026-05-05 09:17 53.65516 9.97417 599 ft 180 kts 333°
2026-05-05 09:17 53.66614 9.96410 1386 ft 182 kts 336°
2026-05-05 09:18 53.67794 9.95478 2030 ft 192 kts 336°
2026-05-05 09:18 53.69097 9.94606 2392 ft 211 kts 352°
2026-05-05 09:18 53.70678 9.94633 2651 ft 239 kts
2026-05-05 09:18 53.72365 9.94800 3178 ft 252 kts 11°
2026-05-05 09:19 53.73922 9.96188 3722 ft 263 kts 48°
2026-05-05 09:19 53.74845 9.98861 4450 ft 266 kts 65°
2026-05-05 09:19 53.75638 10.01765 5112 ft 275 kts 64°
2026-05-05 09:19 53.76462 10.04717 5884 ft 279 kts 64°
2026-05-05 09:20 53.77255 10.07712 6643 ft 280 kts 73°
2026-05-05 09:20 53.77343 10.11005 7175 ft 287 kts 107°
2026-05-05 09:20 53.76412 10.13929 7877 ft 282 kts 128°
2026-05-05 09:20 53.75248 10.16649 8550 ft 288 kts 127°
2026-05-05 09:21 53.74103 10.19425 9348 ft 289 kts 126°
2026-05-05 09:21 53.72961 10.22244 9904 ft 292 kts 126°
2026-05-05 09:21 53.71813 10.25110 9929 ft 297 kts 126°
2026-05-05 09:21 53.70662 10.28012 9938 ft 296 kts 126°
2026-05-05 09:22 53.69528 10.30895 9960 ft 294 kts 126°
2026-05-05 09:22 53.68371 10.33839 10087 ft 311 kts 126°
2026-05-05 09:22 53.66973 10.36755 10277 ft 332 kts 135°
2026-05-05 09:22 53.65255 10.39573 10459 ft 356 kts 139°
2026-05-05 09:23 53.63377 10.42450 10937 ft 371 kts 139°
2026-05-05 09:23 53.61423 10.45412 11601 ft 382 kts 139°
2026-05-05 09:23 53.59443 10.48440 12497 ft 388 kts 139°
2026-05-05 09:23 53.57444 10.51531 13498 ft 392 kts 138°
2026-05-05 09:24 53.55435 10.54663 14363 ft 397 kts 138°
2026-05-05 09:24 53.53407 10.57842 15213 ft 402 kts 138°
2026-05-05 09:24 53.51349 10.61077 16040 ft 407 kts 139°
2026-05-05 09:24 53.49276 10.64342 16849 ft 412 kts 139°
2026-05-05 09:25 53.47182 10.67637 17645 ft 418 kts 139°
2026-05-05 09:25 53.45044 10.71000 18407 ft 424 kts 139°
2026-05-05 09:25 53.42880 10.74398 19122 ft 428 kts 139°
2026-05-05 09:25 53.40695 10.77825 19867 ft 432 kts 139°
2026-05-05 09:26 53.38491 10.81277 20592 ft 436 kts 139°
2026-05-05 09:26 53.36264 10.84760 21299 ft 440 kts 139°
2026-05-05 09:26 53.34015 10.88272 22008 ft 444 kts 140°
2026-05-05 09:26 53.31747 10.91807 22722 ft 448 kts 140°
2026-05-05 09:27 53.29454 10.95376 23354 ft 453 kts 140°
2026-05-05 09:27 53.27137 10.98973 23896 ft 457 kts 140°
2026-05-05 09:27 53.24796 11.02606 24445 ft 461 kts 140°
2026-05-05 09:27 53.22466 11.06216 24974 ft 465 kts 140°
2026-05-05 09:28 53.20055 11.09945 25459 ft 469 kts 141°
2026-05-05 09:28 53.17678 11.13615 25924 ft 474 kts 141°
2026-05-05 09:28 53.15247 11.17361 26415 ft 478 kts 141°
2026-05-05 09:28 53.12799 11.21133 26911 ft 481 kts 141°
2026-05-05 09:29 53.10332 11.24933 27385 ft 485 kts 141°
2026-05-05 09:29 53.07846 11.28757 27844 ft 488 kts 142°
2026-05-05 09:29 53.05342 11.32598 28322 ft 491 kts 142°
2026-05-05 09:29 53.02821 11.36456 28749 ft 494 kts 142°
2026-05-05 09:30 53.00280 11.40337 29145 ft 498 kts 142°
2026-05-05 09:30 52.95571 11.47505 29784 ft 503 kts 142°